STARLINK-34057, 63814

Orbit data source: Space-Track

STARLINK-34057, 63814 is a payload satellite owned by SpaceX/Seattle (US) in LEO that was launched on Sun, 04 May 2025 UTC via an FALCON 9 launch vehicle from the Air Force Eastern Test Range (AFETR). Payload-class satellites include a variety of spacecraft equipped with specific instruments for various scientific and technological missions. These include communications satellites like Starlink; space stations such as the ISS; scientific satellites like the Hubble; Earth observation satellites from companies like Planet Labs, Umbra, and HawkEye 360; GPS; miniature CubeSats for education and research; and military/defense satellites.

Loading next visibility...
Identifier
63814, 2025-092L
Orbit
LEO
Country
Flag of USUS
Related business
Manufacturer
SpaceX/Seattle
Mission
Operational Commercial Communications
Bus & Motor
STARLINK V2MO, Unknown motor
Mass
575 kg wet, ~530 kg dry
Launch date (UTC)
2025-05-04 (1 year ago)
Launch vehicle
FALCON 9
Launch site
Air Force Eastern Test Range (AFETR)
Object type
Payload
Rocket body
Debris
Shape & HBR
Box + 1 Pan, 17.7 m
Radar Cross Section
41.120 m², Large (>1 m²)

Expand to show TLE details & history
Last TLE update: 19 hours ago

TLE from 19 hours ago
0 STARLINK-34057
1 63814U 25092L   26267.04357959  .00017613  00000-0  64759-3 0  9997
2 63814  43.0011 132.0518 0001870 257.9988 102.0654 15.27602969 78951
Epoch: 2026-09-24T01:02Z
TLE epoch observation values (Epoch: 2026-09-24T01:02:45.276Z)
Latitude
-0.00003°
Longitude
113.47711°
Altitude
483.024 km
Speed
7.626 km/s
True Right ascension
08h 48m 12s
True Declination
0° 00' 00"
Sunlit
Object was in daylight at epoch
Visualization orbit readout
Latitude
Unknown
Longitude
Unknown
Altitude
Unknown
Speed
Unknown
Apparent Right ascension
Unknown
Apparent Declination
Unknown
Sunlit
N/A
Visualization observer readout
Local Sidereal Time
13:04:35
Azimuth
Unknown
Elevation
Unknown
Doppler factor
Unknown
Orbital elements
Apogee altitude
486.209 km
Perigee altitude
483.642 km
Semi-major axis
6,863.062 km
Eccentricity
0.00019
Inclination
43.0011°
RAAN
132.0518°
Arg. of periapsis
257.9988°
True anomaly
102.08635°
Mean anomaly
102.0654°
Eccentric anomaly
102.07588°
Mean motion
3.81739 °/min
Orbital period
94.31 mins
BSTAR
0.00064759
Loading maneuver chart data...
Computing Atmospheric mass density...
Loading historical data...
Loading historical data...
Loading historical data...
Loading historical data...
Loading historical data...
Loading historical data...
Loading historical data...

Documentation

Showing up to 5 results
|